Starlink 35428

operational
NORAD ID: 66115 Int'l Des: 2025-237 Owner: SPXS Country: US Constellation: starlink
LEOCIRCULAR

About Starlink 35428

Description loading...

Live Position

Loading 3D Globe...

Upcoming Passes

Altitude History

Altitude vs Time

uPlot chart will show altitude changes over time

Two-Line Element Set

1 66115U 25237B 25318.83334491 -.02106259 00000-0 -43590-1 0 9991
2 66115 53.1604 219.1865 0001539 101.9579 127.4453 15.48701794 4996
Epoch: Nov 14, 2025 • Age: 8 hours

Current Status

Altitude 439.6 km
Velocity 7.65 km/s
Sub-Earth Point -41.83°S, 31.69°W
Launch Date Oct 22, 2025
Age 23 days
Type internet

Technical Details

Classification Payload
Mass 575.00 kg
Dry Mass 530.00 kg
Total Mass 575.00 kg
Length 0.30 m
Diameter 4.10 m
Span 29.00 m
Shape Box + pan
Manufacturer SPXS
Bus Type Starlink V2MO
Phase Status In Orbit
Owner/State SPXS/US

Large Constellations

Loading constellations...